| time (UTC) | temp C | wind direction | speed KPH | gust KPH | rain 1hr cm | rain 24hr cm | rain mn cm | humidity % | barometer mb |
| 20260508135439 | 10 | 115 | 3.2 | 8.0 | 0.00 | 0.00 | 0.00 | 79 | 1011.2 |
| 20260508133939 | 10 | 144 | 4.8 | 8.0 | 0.00 | 0.00 | 0.00 | 81 | 1011.2 |
| 20260508132438 | 9 | 77 | 1.6 | 3.2 | 0.00 | 0.00 | 0.00 | 82 | 1011.2 |
| 20260508130940 | 10 | 115 | 1.6 | 8.0 | 0.00 | 0.00 | 0.00 | 79 | 1011.2 |
| 20260508125438 | 9 | 120 | 3.2 | 4.8 | 0.00 | 0.00 | 0.00 | 80 | 1011.2 |
| 20260508123938 | 9 | 126 | 4.8 | 8.0 | 0.00 | 0.00 | 0.00 | 80 | 1011.2 |
| 20260508122439 | 8 | 118 | 3.2 | 4.8 | 0.00 | 0.00 | 0.00 | 82 | 1011.2 |
| 20260508120939 | 8 | 103 | 3.2 | 4.8 | 0.00 | 0.00 | 0.00 | 83 | 1010.8 |
| 20260508115438 | 8 | 103 | 4.8 | 4.8 | 0.00 | 0.00 | 0.00 | 82 | 1010.8 |
| 20260508113938 | 7 | 104 | 3.2 | 4.8 | 0.00 | 0.00 | 0.00 | 82 | 1010.5 |
| 20260508112440 | 7 | 46 | 1.6 | 3.2 | 0.00 | 0.00 | 0.00 | 83 | 1010.8 |
| 20260508110938 | 6 | 341 | 0.0 | 1.6 | 0.00 | 0.00 | 0.00 | 88 | 1010.7 |
| 20260508105439 | 5 | 339 | 0.0 | 1.6 | 0.00 | 0.00 | 0.00 | 92 | 1010.5 |
| 20260508103938 | 5 | 338 | 1.6 | 1.6 | 0.00 | 0.00 | 0.00 | 92 | 1010.5 |
| 20260508102438 | 5 | 338 | 0.0 | 0.0 | 0.00 | 0.00 | 0.00 | 92 | 1010.5 |
| 20260508100938 | 5 | 337 | 0.0 | 0.0 | 0.00 | 0.00 | 0.00 | 94 | 1010.5 |
| 20260508095439 | 6 | 338 | 0.0 | 3.2 | 0.00 | 0.00 | 0.00 | 92 | 1010.5 |
| 20260508093939 | 6 | 333 | 4.8 | 8.0 | 0.00 | 0.00 | 0.00 | 90 | 1010.2 |
| 20260508092439 | 7 | 316 | 3.2 | 4.8 | 0.00 | 0.00 | 0.00 | 88 | 1010.2 |
| 20260508090938 | 7 | 309 | 4.8 | 4.8 | 0.00 | 0.00 | 0.00 | 88 | 1010.2 |
| 20260508085439 | 7 | 302 | 4.8 | 8.0 | 0.00 | 0.00 | 0.00 | 85 | 1010.2 |
| 20260508083939 | 7 | 294 | 4.8 | 9.7 | 0.00 | 0.00 | 0.00 | 85 | 1010.5 |
| 20260508082439 | 6 | 344 | 1.6 | 3.2 | 0.00 | 0.00 | 0.00 | 90 | 1010.5 |
| 20260508080938 | 7 | 344 | 1.6 | 3.2 | 0.00 | 0.00 | 0.00 | 88 | 1010.5 |
| 20260508075438 | 7 | 341 | 3.2 | 4.8 | 0.00 | 0.00 | 0.00 | 87 | 1010.2 |
| 20260508073939 | 7 | 333 | 3.2 | 8.0 | 0.00 | 0.00 | 0.00 | 86 | 1010.2 |
| 20260508072438 | 7 | 346 | 4.8 | 8.0 | 0.00 | 0.00 | 0.00 | 81 | 1010.5 |
| 20260508070938 | 8 | 345 | 1.6 | 4.8 | 0.00 | 0.00 | 0.00 | 80 | 1010.2 |
| 20260508065438 | 8 | 340 | 4.8 | 9.7 | 0.00 | 0.00 | 0.00 | 78 | 1010.2 |
| 20260508063938 | 8 | 333 | 3.2 | 8.0 | 0.00 | 0.00 | 0.00 | 79 | 1010.3 |
| 20260508062438 | 8 | 291 | 1.6 | 4.8 | 0.00 | 0.00 | 0.00 | 76 | 1010.4 |
| 20260508060937 | 9 | 282 | 1.6 | 3.2 | 0.00 | 0.00 | 0.00 | 71 | 1010.2 |
| 20260508055438 | 9 | 267 | 4.8 | 4.8 | 0.00 | 0.00 | 0.00 | 69 | 1010.2 |
| 20260508053939 | 8 | 259 | 3.2 | 4.8 | 0.00 | 0.00 | 0.00 | 70 | 1010.5 |
| 20260508052438 | 8 | 288 | 3.2 | 4.8 | 0.00 | 0.00 | 0.00 | 71 | 1010.8 |
| 20260508050938 | 8 | 303 | 3.2 | 3.2 | 0.00 | 0.00 | 0.00 | 70 | 1010.8 |
| 20260508045442 | 8 | 296 | 3.2 | 3.2 | 0.00 | 0.00 | 0.00 | 69 | 1010.8 |
| 20260508043939 | 9 | 290 | 3.2 | 3.2 | 0.00 | 0.00 | 0.00 | 67 | 1010.8 |
| 20260508042443 | 10 | 284 | 3.2 | 4.8 | 0.00 | 0.00 | 0.00 | 65 | 1010.5 |
| 20260508040940 | 10 | 290 | 4.8 | 8.0 | 0.00 | 0.00 | 0.00 | 63 | 1010.8 |
| 20260508035318 | 10 | 288 | 8.0 | 12.9 | 0.00 | 0.00 | 0.00 | 60 | 1011.1 |
| 20260508033817 | 11 | 282 | 4.8 | 14.5 | 0.00 | 0.00 | 0.00 | 56 | 1010.8 |
| 20260508032320 | 10 | 293 | 14.5 | 25.7 | 0.00 | 0.00 | 0.00 | 61 | 1011.2 |
| 20260508030817 | 10 | 268 | 8.0 | 9.7 | 0.00 | 0.00 | 0.00 | 61 | 1010.8 |
| 20260508025319 | 9 | 266 | 4.8 | 4.8 | 0.00 | 0.00 | 0.00 | 64 | 1010.5 |
| 20260508023817 | 9 | 260 | 8.0 | 9.7 | 0.00 | 0.00 | 0.00 | 59 | 1010.8 |
| 20260508022319 | 9 | 272 | 1.6 | 3.2 | 0.00 | 0.00 | 0.00 | 62 | 1010.8 |
| 20260508020818 | 9 | 303 | 3.2 | 4.8 | 0.00 | 0.00 | 0.00 | 56 | 1010.5 |
| 20260508015319 | 9 | 288 | 3.2 | 3.2 | 0.00 | 0.00 | 0.00 | 57 | 1010.5 |
| 20260508013816 | 9 | 292 | 3.2 | 3.2 | 0.00 | 0.00 | 0.00 | 59 | 1010.5 |
| 20260508012319 | 9 | 297 | 3.2 | 4.8 | 0.00 | 0.00 | 0.00 | 60 | 1010.5 |
| 20260508010817 | 9 | 298 | 3.2 | 4.8 | 0.00 | 0.00 | 0.00 | 61 | 1009.8 |
| 20260508005317 | 10 | 298 | 3.2 | 4.8 | 0.00 | 0.00 | 0.00 | 58 | 1010.2 |
| 20260508003816 | 10 | 297 | 3.2 | 8.0 | 0.00 | 0.00 | 0.00 | 57 | 1010.2 |
| 20260508002427 | 10 | 308 | 8.0 | 11.3 | 0.00 | 0.00 | 0.00 | 57 | 1009.8 |
| 20260508000926 | 10 | 300 | 8.0 | 8.0 | 0.00 | 0.00 | 0.00 | 57 | 1009.8 |
| 20260507235317 | 11 | 314 | 8.0 | 11.3 | 0.00 | 0.00 | 0.00 | 55 | 1009.8 |
| 20260507233816 | 11 | 325 | 4.8 | 9.7 | 0.00 | 0.00 | 0.00 | 53 | 1009.5 |
| 20260507232319 | 11 | 328 | 4.8 | 14.5 | 0.00 | 0.00 | 0.00 | 51 | 1009.8 |
| 20260507230817 | 12 | 350 | 4.8 | 14.5 | 0.00 | 0.00 | 0.00 | 51 | 1009.8 |
| 20260507225319 | 12 | 341 | 8.0 | 12.9 | 0.00 | 0.00 | 0.00 | 46 | 1009.8 |
| 20260507223817 | 12 | 341 | 11.3 | 14.5 | 0.00 | 0.00 | 0.00 | 45 | 1009.8 |
| 20260507222318 | 12 | 24 | 9.7 | 19.3 | 0.00 | 0.00 | 0.00 | 45 | 1009.5 |
| 20260507220817 | 12 | 11 | 9.7 | 20.9 | 0.00 | 0.00 | 0.00 | 45 | 1009.8 |
| 20260507215320 | 12 | 319 | 16.1 | 24.1 | 0.00 | 0.00 | 0.00 | 49 | 1009.5 |
| 20260507213816 | 12 | 336 | 12.9 | 20.9 | 0.00 | 0.00 | 0.00 | 45 | 1009.5 |
| 20260507212317 | 12 | 354 | 19.3 | 29.0 | 0.00 | 0.00 | 0.00 | 45 | 1009.1 |
| 20260507210817 | 13 | 313 | 16.1 | 22.5 | 0.00 | 0.00 | 0.00 | 49 | 1009.5 |
| 20260507205318 | 11 | 285 | 14.5 | 19.3 | 0.00 | 0.00 | 0.00 | 55 | 1009.5 |
| 20260507203816 | 12 | 311 | 12.9 | 16.1 | 0.00 | 0.00 | 0.00 | 55 | 1009.5 |
| 20260507202317 | 11 | 288 | 9.7 | 12.9 | 0.00 | 0.00 | 0.00 | 54 | 1009.5 |
| 20260507200817 | 11 | 263 | 16.1 | 22.5 | 0.00 | 0.00 | 0.00 | 68 | 1009.5 |
| 20260507195318 | 11 | 258 | 12.9 | 22.5 | 0.00 | 0.00 | 0.00 | 72 | 1009.7 |
| 20260507193816 | 10 | 260 | 12.9 | 19.3 | 0.00 | 0.00 | 0.00 | 76 | 1010.0 |
| 20260507192317 | 10 | 262 | 16.1 | 25.7 | 0.00 | 0.00 | 0.00 | 72 | 1009.9 |
| 20260507190816 | 10 | 249 | 11.3 | 19.3 | 0.00 | 0.00 | 0.00 | 77 | 1010.2 |
| 20260507185317 | 10 | 261 | 14.5 | 22.5 | 0.00 | 0.00 | 0.00 | 77 | 1010.2 |
| 20260507183817 | 10 | 246 | 16.1 | 20.9 | 0.00 | 0.00 | 0.00 | 78 | 1010.5 |
| 20260507182320 | 10 | 256 | 14.5 | 25.7 | 0.00 | 0.00 | 0.00 | 74 | 1010.5 |
| 20260507180816 | 10 | 252 | 16.1 | 24.1 | 0.00 | 0.00 | 0.00 | 71 | 1010.5 |
| 20260507175319 | 10 | 247 | 14.5 | 24.1 | 0.00 | 0.00 | 0.00 | 73 | 1010.5 |
| 20260507173817 | 10 | 240 | 14.5 | 20.9 | 0.00 | 0.00 | 0.00 | 74 | 1010.8 |
| 20260507172317 | 10 | 237 | 11.3 | 16.1 | 0.00 | 0.00 | 0.00 | 78 | 1010.8 |
| 20260507170817 | 10 | 223 | 9.7 | 14.5 | 0.00 | 0.00 | 0.00 | 81 | 1011.2 |
| 20260507165319 | 10 | 223 | 11.3 | 14.5 | 0.00 | 0.00 | 0.00 | 79 | 1011.2 |
| 20260507163816 | 10 | 212 | 11.3 | 14.5 | 0.00 | 0.00 | 0.00 | 77 | 1010.8 |
| 20260507162317 | 10 | 211 | 8.0 | 12.9 | 0.00 | 0.00 | 0.00 | 77 | 1011.2 |
| 20260507160816 | 11 | 213 | 11.3 | 12.9 | 0.00 | 0.00 | 0.00 | 84 | 1011.2 |
| 20260507155316 | 10 | 196 | 8.0 | 11.3 | 0.00 | 0.00 | 0.00 | 84 | 1011.2 |
| 20260507153816 | 10 | 182 | 4.8 | 9.7 | 0.00 | 0.00 | 0.00 | 85 | 1011.2 |
| 20260507152318 | 10 | 176 | 4.8 | 9.7 | 0.00 | 0.00 | 0.00 | 88 | 1011.4 |
| 20260507150817 | 10 | 198 | 3.2 | 8.0 | 0.00 | 0.00 | 0.00 | 87 | 1011.2 |
| 20260507145318 | 10 | 213 | 8.0 | 9.7 | 0.00 | 0.00 | 0.00 | 81 | 1011.2 |
| 20260507143816 | 10 | 206 | 8.0 | 9.7 | 0.00 | 0.00 | 0.00 | 84 | 1011.5 |
| 20260507142318 | 10 | 225 | 4.8 | 8.0 | 0.00 | 0.00 | 0.00 | 81 | 1011.5 |
| 20260507140817 | 10 | 227 | 4.8 | 8.0 | 0.00 | 0.00 | 0.00 | 83 | 1011.5 |